Tracking 22124 objects as of 25-Jan-2021
HD Live streaming from Space Station
objects crossing your sky now

SL-8 DEB

Track SL-8 DEB now!
10-day predictions


NORAD ID: 16865
Int'l Code: 1986-052C
Perigee: 462.9 km
Apogee: 476.2 km
Inclination: 74.0 °
Period: 93.8 minutes
Semi major axis: 6840 km
RCS: 5.4539 m2 (large)
Launch date: July 16, 1986
Source: Commonwealth of Independent States (former USSR) (CIS)
Launch site: PLESETSK MISSILE AND SPACE COMPLEX (PKMTR)

Note: This is SATELLITE DEBRIS
aabbcc
Your satellite tracking list
Your tracking list is empty




NASA's NSSDC Master Catalog

Two Line Element Set (TLE):
1 16865U 86052C   21024.74437797  .00007112  00000-0  21395-3 0  9998
2 16865  73.9985 259.4522 0009725 253.2197 106.7941 15.34504758855963
Source of the keplerian elements: AFSPC